Location: Cañada de la Miga
(34.7595°N, 106.2317°W)
Time: 06:23:02
(UTC+00:00)

Transit 4A - Pass Details

Date: 02 December 2021
Orbit: 864 x 980 km, 66.8° (Epoch: 16 January)

Event Time Altitude Azimuth Distance (km) Brightness Sun altitude
Rises 11:33:41 0° 337° (NNW) 3,623 - -28.5°
Reaches altitude 10° 11:36:16 10° 342° (NNW) 2,690 - -27.9°
Exits shadow 11:39:16 29° 354° (N) 1,698 9.1 -27.3°
Maximum altitude 11:42:27 56° 60° (ENE) 1,140 8.5 -26.7°
Drops below altitude 10° 11:48:43 10° 138° (SE) 2,721 11.0 -25.4°
Sets 11:51:20 0° 143° (SE) 3,668 11.7 -24.9°
